Dauntless Aviation
Airports Europe Croatia
LDSP
SPU

Split

Split, CROATIA

Airport Info
Suggest Updated Information for this Airport

Location

Latitude / Longitude: 43°32'20"N / 16°17'52"E
  43°32.334'N / 16°17.88'E
  43.5389 / 16.2980

Nearby radio navigation aids

DVN DRVENIK NDB. 48.4° 8.7nm from DVN to field.
SPL SPLIT VOR/DME. 351.2° 2.6nm from SPL to field.
TRI TROGIR NDB. 50.4° 4.2nm from TRI to field.

Runway Information

Runway 05 /23

Dimensions: 8366 x 148 ft.
Surface: ASP
 
Runway 05
Runway 23
Latitude: 43.532053 43.545181
Longitude: 16.285583 16.309194
Elevation: 70 ft. 70 ft.
Runway true heading: 53.2 233.2
 

Instrument Procedures

  Aircraft Parking/Docking Chart
  Aerodrome Chart

STARs (Standard Terminal Arrivals)

  STAR - Instrument (STAR) - Rwy 23
  STAR - Instrument (STAR) - Rwy 05

IAPs (Instrument Approach Procedures)

  ATC Surveillance Minimum Altitude Chart
  VOR-B Rwy 23
  Bird Concentrations
  Visual Approach Chart
  NDB Rwy 05
  ILSz Rwy 05
  ILSy Rwy 05
  Aerodrome Obstacle Chart - Type A - Rwy 23
  Aerodrome Obstacle Chart - Type A - Rwy 05
  Visual Operation Chart

Departure Procedures

  SID - Instrument (SID) - Rwy 23
  SID - Instrument (SID) - Rwy 05
Satellite photo at:
Airport distance calculator
From:
Weather Reports

METAR

LDSP

LDSP 271100Z 02017KT 9999 VCTS FEW040CB SCT060 27/13 Q1013 BECMG NSW SCT050

TAF

LDSP
TAF LDSP 270525Z 2706/2806 VRB02KT CAVOK TX32/2713Z TN20/2803Z BECMG 2709/2711 23010KT BECMG 2714/2716 32008KT PROB30 TEMPO 2714/2717 03015G25KT TSRA FEW030CB SCT035 BECMG 2803/2805 05010KT
LDSB
22.8nm E
TAF LDSB 261125Z 2612/2712 28007KT CAVOK TX30/2612Z TN23/2704Z TEMPO 2612/2615 23007KT
Safelog

 

Dauntless Aviation

© 2007-2016 Dauntless Aviation, all rights reserved
Information provided via PilotNav comes from a variety of official and unofficial data sources. As errors are possible, do not use PilotNav for primary flight planning purposes. Verify any information that you receive via PilotNav with current and canonical charts and other official documents. The material in this database is subject to database copyrights held by Dauntless Aviation and may not be copied without the express permission of Dauntless Aviation - licenses for use of part of all of this data are available for purchase; enquire via the Dauntless Aviation helpdesk. A number of mechanisms and markers exist in the database to protect against and identify infringement / copyright. Automated queries against this website are stictly prohibited, and all activity is logged and analyzed.